Location: Sungai Liu
(2.3667°N, 113.8667°E)
Time: 14:32:17
(UTC+00:00)

H-2A R/B - Pass Details

Date: 20 May 2022
Orbit: 526 x 647 km, 98.3° (Epoch: 06 July)

Event Time Altitude Azimuth Distance (km) Brightness Sun altitude
Exits shadow 12:36:56 24° 351° (N) 1,331 4.5 -30.7°
Drops below altitude 10° 12:38:43 10° 350° (N) 2,035 5.6 -31.1°
Sets 12:40:55 0° 349° (N) 2,936 6.5 -31.6°
